Change the Weather History Date:

Friday, November 15, 2013

  Actual Average Record
Temperature  
Mean Temperature 41 °F -  
Max Temperature 48 °F 42 °F 53 °F (1979)
Min Temperature 34 °F 35 °F 19 °F (1950)
Degree Days  
Heating Degree Days 24    
Moisture  
Dew Point 28 °F    
Average Humidity 59    
Maximum Humidity 86    
Minimum Humidity 34    
Precipitation  
Precipitation 0.15 in - - ()
Sea Level Pressure  
Sea Level Pressure 29.64 in    
Wind  
Wind Speed 10 mph (North)    
Max Wind Speed 22 mph    
Max Gust Speed 30 mph    
Visibility 10 miles    
Events Rain    
Averages and records for this station are not official NWS values.
T = Trace of Precipitation, MM = Missing Value Source: NWS Daily Summary

Daily Weather History Graph

Daily Weather History Graph

Search for Another Location

Airport or City:

Trip Planner

Search our weather history database for the weather conditions in past years. The results will help you decide how hot, cold, wet, or windy it might be!

Date:

Astronomy

Nov. 15, 2013 Rise Set
Actual Time 7:44 AM AKST 3:47 PM AKST
Civil Twilight 7:00 AM AKST 4:31 PM AKST
Nautical Twilight 6:12 AM AKST 5:18 PM AKST
Astronomical Twilight 5:27 AM AKST 6:03 PM AKST
Moon 3:05 PM AKST (11/15) 5:28 AM AKST (11/15)
Length of Visible Light 9h 31m
Length of Day
8h 03m
Waxing Gibbous, 97% of the Moon is Illuminated
Nov 15
Waxing Gibbous
Nov 17
Full
Nov 25
Last Quarter
Dec 2
New
Dec 9
First Quarter

Hourly Weather History & Observations

Time (AKST) Temp. Windchill Dew Point Humidity Pressure Visibility Wind Dir Wind Speed Gust Speed Precip Events Conditions
12:53 AM 48.0 °F - 41.0 °F 77% 29.52 in 7.0 mi WNW 11.5 mph - 0.02 in Rain Light Rain
1:06 AM 46.9 °F - 42.1 °F 83% 29.51 in 10.0 mi WNW 9.2 mph - 0.00 in Rain Light Rain
1:53 AM 46.0 °F 39.9 °F 39.9 °F 79% 29.50 in 8.0 mi NW 13.8 mph - 0.07 in Rain Rain
2:07 AM 46.0 °F 41.4 °F 39.9 °F 79% 29.49 in 9.0 mi NW 9.2 mph - 0.00 in Rain Light Rain
2:53 AM 45.0 °F 40.6 °F 41.0 °F 86% 29.47 in 10.0 mi WNW 8.1 mph - 0.03 in Rain Light Rain
3:03 AM 46.0 °F 41.4 °F 39.9 °F 79% 29.47 in 10.0 mi NW 9.2 mph - 0.00 in   Overcast
3:19 AM 44.1 °F 35.7 °F 39.0 °F 82% 29.47 in 6.0 mi NNW 20.7 mph - 0.01 in Rain Rain
3:31 AM 43.0 °F 34.0 °F 37.0 °F 80% 29.47 in 9.0 mi NNW 21.9 mph 28.8 mph 0.02 in Rain Light Rain
3:53 AM 44.1 °F 40.8 °F 36.0 °F 73% 29.47 in 10.0 mi Variable 5.8 mph - 0.03 in Rain Light Rain
4:53 AM 43.0 °F 37.7 °F 32.0 °F 65% 29.50 in 10.0 mi North 9.2 mph - 0.00 in   Clear
5:53 AM 43.0 °F 36.8 °F 27.0 °F 53% 29.55 in 10.0 mi NNE 11.5 mph 24.2 mph N/A   Clear
6:53 AM 42.1 °F 34.5 °F 28.0 °F 58% 29.60 in 10.0 mi NNW 15.0 mph 26.5 mph N/A   Clear
7:53 AM 42.1 °F 34.5 °F 26.1 °F 53% 29.63 in 10.0 mi NW 15.0 mph 21.9 mph N/A   Clear
8:53 AM 43.0 °F 37.7 °F 24.1 °F 47% 29.68 in 10.0 mi North 9.2 mph 29.9 mph N/A   Clear
9:53 AM 44.1 °F 37.7 °F 17.1 °F 34% 29.70 in 10.0 mi North 12.7 mph 26.5 mph N/A   Clear
10:53 AM 45.0 °F 39.7 °F 18.0 °F 34% 29.74 in 10.0 mi North 10.4 mph 19.6 mph N/A   Clear
11:53 AM 45.0 °F 39.3 °F 19.9 °F 37% 29.75 in 10.0 mi North 11.5 mph 23.0 mph N/A   Clear
12:53 PM 45.0 °F 38.2 °F 19.0 °F 36% 29.77 in 10.0 mi North 15.0 mph 21.9 mph N/A   Clear
1:53 PM 45.0 °F 40.1 °F 18.0 °F 34% 29.77 in 10.0 mi North 9.2 mph 20.7 mph N/A   Partly Cloudy
2:53 PM 44.1 °F 38.6 °F 18.0 °F 35% 29.78 in 10.0 mi North 10.4 mph 18.4 mph N/A   Partly Cloudy
3:53 PM 41.0 °F 34.3 °F 18.0 °F 40% 29.77 in 10.0 mi North 11.5 mph - N/A   Scattered Clouds
4:53 PM 39.9 °F 36.7 °F 19.0 °F 43% 29.78 in 10.0 mi North 4.6 mph - N/A   Scattered Clouds
5:53 PM 37.0 °F 34.5 °F 21.9 °F 54% 29.78 in 10.0 mi NE 3.5 mph - N/A   Scattered Clouds
6:53 PM 37.0 °F 33.3 °F 21.9 °F 54% 29.78 in 10.0 mi East 4.6 mph - N/A   Clear
7:53 PM 36.0 °F 32.1 °F 23.0 °F 59% 29.77 in 10.0 mi East 4.6 mph - N/A   Scattered Clouds
8:53 PM 34.0 °F - 23.0 °F 64% 29.75 in 10.0 mi Calm Calm - N/A   Mostly Cloudy
9:53 PM 34.0 °F 29.8 °F 24.1 °F 67% 29.75 in 10.0 mi East 4.6 mph - N/A   Mostly Cloudy
10:53 PM 34.0 °F 31.0 °F 24.1 °F 67% 29.74 in 10.0 mi ENE 3.5 mph - N/A   Mostly Cloudy
11:53 PM 35.1 °F - 24.1 °F 64% 29.72 in 10.0 mi Calm Calm - N/A   Overcast